Location: Prairie State College
(41.5244°N, 87.6382°W)
Time: 04:44:39
(UTC-05:00)

Cosmos 1140 Rocket - Visible Passes

Search period start: 01 November 2014 00:00
Search period end: 10 November 2014 23:00
Orbit: 746 x 769 km, 74.1° (Epoch: 31 October)

Date Brightness Start Highest point End Pass type
(mag) Time Alt. Az. Time Alt. Az. Time Alt. Az.
03 Nov 6.1 19:49:08 10° NNW 19:49:21 11° NNW 19:49:21 11° NNW visible
04 Nov 5.7 19:09:11 10° N 19:10:05 14° N 19:10:05 14° N visible
05 Nov 5.4 18:29:34 10° N 18:30:53 15° NNE 18:30:53 15° NNE visible
05 Nov 6.2 20:10:31 10° NNW 20:10:56 12° NNW 20:10:56 12° NNW visible
06 Nov 5.4 17:50:45 10° NNE 17:51:45 12° NE 17:51:45 12° NE visible
06 Nov 5.4 19:30:10 10° NNW 19:31:49 21° NNW 19:31:49 21° NNW visible
07 Nov 4.7 18:50:06 10° N 18:52:48 28° N 18:52:48 28° N visible
07 Nov 6.5 20:32:42 10° NW 20:32:53 11° NW 20:32:53 11° NW visible
08 Nov 4.6 18:10:17 10° N 18:13:56 26° NE 18:13:56 26° NE visible
08 Nov 5.5 19:51:46 10° NW 19:54:01 24° NW 19:54:01 24° NW visible
09 Nov 5.0 17:30:56 10° NNE 17:34:06 16° NE 17:35:15 15° ENE visible
09 Nov 4.0 19:11:17 10° NNW 19:15:21 53° NW 19:15:21 53° NW visible
10 Nov 3.4 18:31:04 10° NNW 18:36:17 62° ENE 18:36:59 56° ESE visible
10 Nov 6.1 20:14:28 10° WNW 20:17:07 16° W 20:17:07 16° W visible
